Location: Budapest
(47.4979°N, 19.0402°E)
Time: 17:04:13
(UTC+02:00)

ISS - Pass Details

Date: 12 October 2017
Orbit: 400 x 408 km, 51.6° (Epoch: 24 October)

Event Time Altitude Azimuth Distance (km) Brightness Sun altitude
Rises 19:22:50 0° 293° (WNW) 2,327 1.5 -14.5°
Reaches altitude 10° 19:24:57 10° 288° (WNW) 1,466 0.3 -14.9°
Maximum altitude 19:28:08 50° 212° (SSW) 527 -3.1 -15.4°
Enters shadow 19:29:46 25° 147° (SSE) 873 -2.5 -15.7°
